Content
SEND FEEDBACK

Daily
Averages
Monthly
Summary
United States of America

POTTS JUNCTION, GUAM


Home > North America > United States > Guam
Elevation: 360 feet     Latitude: 13 33N     Longitude: 144 50E

WEATHER
 
SELECT A DAY
Number of Records: 213,057;   Date Range: 1/1/95 - 9/29/14
 
SHARE

PRINT THIS DATA

[ ← Previous Day ]
WEATHER ALMANAC - JULY 13, 2014
[ Next Day → ]
[ °C ]   °F
Weather ElementAverageHighLow
Temperature72.5 °F87.1 °F (10:54 am) (12:24 pm)
Dewpoint68.2 °F80.6 °F (1:49 pm) (7:00 pm)
Humidity85.8 %100 % (6:39 am)69 % (9:54 am)
Barometer29.81 in29.87 in (12:54 am)29.75 in (3:54 am)
Wind Speed4.2 mph8.1 mph (1:54 am)
Weather ElementAverage
Visibility9.9 mi
Wind DirectionE (84.6 °)

Weather ElementTotal
Precipitation0.04 in
Heating Degree Days21.5 (Base 65)
Averaged from 56 records on July 13, 2014
WEATHER CONDITIONS BREAKOUT
WIND DIRECTION BREAKOUT
WEATHER BY HOUR - JULY 13, 2014
[ °C ]   °F
Local TimeTemperatureDewpointHumidityBarometerVisibilityWind DirectionWind SpeedGust SpeedPrecipitationEventsConditions
12:54 AM79.0 °F75.0 °F88 %29.80 in10.0 miCalmClear
12:54 AM79.0 °F75.0 °F88 %29.80 in10.0 miCalmClear
1:54 AM74.8 °F74.8 °F100 %29.78 in10.0 miCalmPartly Cloudy
1:54 AM74.8 °F74.8 °F100 %29.78 in10.0 miCalmPartly Cloudy
2:19 AM0.0 °F0.0 °F29.80 in10.0 miCalmPartly Cloudy
2:19 AM0.0 °F0.0 °F29.80 in10.0 miCalmPartly Cloudy
2:54 AM74.7 °F74.7 °F100 %29.77 in10.0 miCalmPartly Cloudy
2:54 AM74.7 °F74.7 °F100 %29.77 in10.0 miCalmPartly Cloudy
3:54 AM0.0 °F0.0 °F29.80 in10.0 miESE (110°)4.6 mphClear
3:54 AM0.0 °F0.0 °F29.80 in10.0 miESE (110°)4.6 mphClear
4:54 AM74.7 °F74.7 °F100 %29.78 in10.0 miSE (130°)3.5 mphClear
4:54 AM74.7 °F74.7 °F100 %29.78 in10.0 miSE (130°)3.5 mphClear
5:54 AM75.2 °F74.8 °F99 %29.81 in10.0 miCalmClear
5:54 AM75.2 °F74.8 °F99 %29.81 in10.0 miCalmClear
6:54 AM75.2 °F75.0 °F99 %29.81 in10.0 miCalmClear
6:54 AM75.2 °F75.0 °F99 %29.81 in10.0 miCalmClear
7:54 AM75.9 °F75.9 °F100 %29.83 in10.0 miCalmClear
7:54 AM75.9 °F75.9 °F100 %29.83 in10.0 miCalmClear
8:54 AM84.0 °F77.0 °F79 %29.84 in10.0 miSE (140°)4.6 mphScattered Clouds
8:54 AM84.0 °F77.0 °F79 %29.84 in10.0 miSE (140°)4.6 mphScattered Clouds
9:22 AM82.4 °F75.2 °F79 %29.86 in10.0 miESE (110°)4.6 mphMostly Cloudy
9:22 AM82.4 °F75.2 °F79 %29.86 in10.0 miESE (110°)4.6 mphMostly Cloudy
9:54 AM82.0 °F78.1 °F88 %29.84 in6.0 miSouth (170°)8.1 mph0.02 inRainLight Rain
9:54 AM82.0 °F78.1 °F88 %29.84 in6.0 miSouth (170°)8.1 mph0.02 inRainLight Rain
10:05 AM82.4 °F80.6 °F94 %29.87 in10.0 miSouth (180°)6.9 mph0.00 inMostly Cloudy
10:05 AM82.4 °F80.6 °F94 %29.87 in10.0 miSouth (180°)6.9 mph0.00 inMostly Cloudy
10:19 AM0.0 °F0.0 °F29.86 in10.0 miSouth (180°)5.8 mph0.00 inMostly Cloudy
10:19 AM0.0 °F0.0 °F29.86 in10.0 miSouth (180°)5.8 mph0.00 inMostly Cloudy
10:54 AM84.0 °F77.0 °F79 %29.83 in10.0 miVariable5.8 mph0.00 inScattered Clouds
10:54 AM84.0 °F77.0 °F79 %29.83 in10.0 miVariable5.8 mph0.00 inScattered Clouds
11:54 AM84.9 °F75.9 °F74 %29.81 in10.0 miSSE (150°)5.8 mphScattered Clouds
11:54 AM84.9 °F75.9 °F74 %29.81 in10.0 miSSE (150°)5.8 mphScattered Clouds
12:54 PM86.0 °F75.9 °F72 %29.79 in10.0 miSSE (150°)5.8 mphPartly Cloudy
12:54 PM86.0 °F75.9 °F72 %29.79 in10.0 miSSE (150°)5.8 mphPartly Cloudy
1:54 PM87.1 °F75.9 °F69 %29.78 in10.0 miESE (110°)6.9 mphMostly Cloudy
1:54 PM87.1 °F75.9 °F69 %29.78 in10.0 miESE (110°)6.9 mphMostly Cloudy
2:54 PM86.0 °F75.9 °F72 %29.78 in10.0 miESE (120°)6.9 mphMostly Cloudy
2:54 PM86.0 °F75.9 °F72 %29.78 in10.0 miESE (120°)6.9 mphMostly Cloudy
3:54 PM84.9 °F77.0 °F77 %29.78 in10.0 miESE (110°)5.8 mphScattered Clouds
3:54 PM84.9 °F77.0 °F77 %29.78 in10.0 miESE (110°)5.8 mphScattered Clouds
4:54 PM84.0 °F75.9 °F76 %29.75 in10.0 miEast (90°)6.9 mphScattered Clouds
4:54 PM84.0 °F75.9 °F76 %29.75 in10.0 miEast (90°)6.9 mphScattered Clouds
5:54 PM82.9 °F77.0 °F82 %29.77 in10.0 miEast (80°)6.9 mphScattered Clouds
5:54 PM82.9 °F77.0 °F82 %29.77 in10.0 miEast (80°)6.9 mphScattered Clouds
6:54 PM82.9 °F77.0 °F82 %29.79 in10.0 miEast (90°)4.6 mphPartly Cloudy
6:54 PM82.9 °F77.0 °F82 %29.79 in10.0 miEast (90°)4.6 mphPartly Cloudy
7:54 PM82.0 °F77.0 °F85 %29.81 in10.0 miEast (90°)5.8 mphPartly Cloudy
7:54 PM82.0 °F77.0 °F85 %29.81 in10.0 miEast (90°)5.8 mphPartly Cloudy
8:54 PM82.0 °F77.0 °F85 %29.82 in10.0 miEast (90°)4.6 mphPartly Cloudy
8:54 PM82.0 °F77.0 °F85 %29.82 in10.0 miEast (90°)4.6 mphPartly Cloudy
9:54 PM80.6 °F77.0 °F89 %29.83 in10.0 miEast (90°)4.6 mphPartly Cloudy
9:54 PM80.6 °F77.0 °F89 %29.83 in10.0 miEast (90°)4.6 mphPartly Cloudy
10:54 PM80.1 °F77.4 °F91 %29.84 in10.0 miEast (90°)3.5 mphScattered Clouds
10:54 PM80.1 °F77.4 °F91 %29.84 in10.0 miEast (90°)3.5 mphScattered Clouds
11:54 PM82.0 °F77.0 °F85 %29.83 in10.0 miEast (90°)4.6 mphPartly Cloudy
11:54 PM82.0 °F77.0 °F85 %29.83 in10.0 miEast (90°)4.6 mphPartly Cloudy
Hourly data recorded from PGUM, located miles away from Potts Junction, Guam







STORIES FROM OUR PARTNERS